HISPASAT 36W-1

Last updated on Tue Sep 22 2026 00:03:14 GMT+0000 (Coordinated Universal Time)

1 41942U 17006A 26264.41072366 -.00000248 00000+0 00000+0 0 9996 2 41942 0.0049 261.5001 0001052 273.5881 297.0788 1.00273102 35210
UTC large
Height (km)
Speed (km/s)
/
Latitude / Longitude
Inclination (degrees)
Orbital Period (minutes)
Azimuth
Elevation
Range (km)
Doppler Factor

Next 0 passes for location: London (51.5072 / 0.1276)

No passes found over London.
HISPASAT 36W-1